Terminal Aerodrome Forecast
Issued by NWS Green Bay, WI

Home | Current Version | Previous Version | Graphics & Text | Print | Product List | Glossary On
Versions: 1 2 3 4 5 6 7 8 9 10 11 12 13 14 15 16 17 18 19 20 21 22 23 24 25 26 27 28 29 30 31 32 33 34 35 36 37 38 39 40 41 42 43 44 45 46 47 48 49 50
000
FTUS43 KGRB 250500
TAFGRB
TAF
KGRB 250534Z 2506/2606 09007KT P6SM SCT040 BKN100
      TEMPO 2507/2508 4SM -SNPL SCT025 OVC035
     FM250800 07007KT 1 1/2SM -SNPL OVC005
      TEMPO 2508/2512 1/2SM SN OVC003
     FM251300 26009KT P6SM OVC010
     FM251600 25012KT P6SM BKN015
     FM252000 24012G18KT P6SM SCT015 BKN070
     FM260100 26010KT P6SM BKN100=

USA.gov is the U.S. government's official web portal to all federal, state and local government web resources and services.